< < Back
Terminal Aerodrome Forecast


Current Version              Previous Versions:   1  2  3  4  5  6  7  8  9  

Terminal Aerodrome Forecast

323
FTUS42 KFFC 011700
TAFPDK
TAF
KPDK 011720Z 0118/0218 24004KT P6SM SCT050
     FM020100 VRB03KT P6SM SKC
     FM021300 17003KT P6SM BKN030
     FM021500 17004KT P6SM SCT045=

Latest METAR

639
SAUS70 KWBC 021600 RRG
MTRPDK
METAR KPDK 021553Z 23003KT 10SM SCT028 SCT034 26/17 A3013 RMK AO2 SLP189
T02560172


USA.gov is the U.S. government's official web portal to all federal, state and local government web resources and services.